Location: Newark
(21.1200°N, 73.4000°E)
Time: 00:58:10
(UTC+00:00)

SR - Pass Details

Date: 30 January 2020
Orbit: 575 x 881 km, 66.7° (Epoch: 20 February)

Event Time Altitude Azimuth Distance (km) Brightness Sun altitude
Rises 14:46:33 0° 191° (SSW) 3,282 ? -26.0°
Reaches altitude 10° 14:48:57 10° 188° (S) 2,395 ? -26.6°
Enters shadow 14:52:44 42° 164° (SSE) 1,185 ? -27.4°
Maximum altitude 14:54:24 58° 110° (ESE) 983 - -27.8°
Drops below altitude 10° 15:00:10 10° 32° (NNE) 2,523 - -29.1°
Sets 15:02:43 0° 28° (NNE) 3,472 - -29.7°
